CZ-6A DEB, 61340

Orbit data source: Space-Track

CZ-6A DEB, 61340 is space debris in LEO originally from a launch on Tue, 06 Aug 2024 UTC launched from the Taiyaun Space Center, China (TSC). Debris objects in space refer to the collection of defunct objects orbiting the Earth. Examples of debris include non-operational satellites, rocket bodies, and fragments generated from explosions, collisions, or faulty payload assembly.

Loading next visibility...
Identifier
61340, 2024-140VD
Orbit
LEO
Country
Flag of CNCN / PRC
Related business
Manufacturer
SAST
Mission
Spacecraft
Bus & Motor
Unknown
Mass
Unknown
Launch date (UTC)
2024-08-06 (2 years ago)
Launch vehicle
Unknown
Launch site
Taiyaun Space Center, China (TSC)
Object type
Payload
Rocket body
Debris
Shape & HBR
Unknown shape, 0.1 m
Radar Cross Section
Small (<0.1 m²)

Expand to show TLE details & history
Last TLE update: 18 hours ago

TLE from 18 hours ago
0 CZ-6A DEB
1 61340U 24140VD  26171.23581566  .00002630  00000-0  36337-3 0  9994
2 61340  89.0210 269.9791 0169161 149.8808 211.2271 14.68289069 95970
Epoch: 2026-06-20T05:39Z
TLE epoch observation values (Epoch: 2026-06-20T05:39:34.473Z)
Latitude
Longitude
-83.36788°
Altitude
772.116 km
Speed
7.413 km/s
True Right ascension
17h 59m 54s
True Declination
0° 00' 00"
Sunlit
Object was in full shadow at epoch
Visualization orbit readout
Latitude
Unknown
Longitude
Unknown
Altitude
Unknown
Speed
Unknown
Apparent Right ascension
Unknown
Apparent Declination
Unknown
Sunlit
N/A
Visualization observer readout
Local Sidereal Time
10:17:10
Azimuth
Unknown
Elevation
Unknown
Doppler factor
Unknown
Orbital elements
Apogee altitude
782.532 km
Perigee altitude
544.301 km
Semi-major axis
7,041.553 km
Eccentricity
0.01692
Inclination
89.021°
RAAN
269.9791°
Arg. of periapsis
149.8808°
True anomaly
210.24006°
Mean anomaly
211.2271°
Eccentric anomaly
210.73181°
Mean motion
3.67317 °/min
Orbital period
98.01 mins
BSTAR
0.00036337
Loading maneuver chart data...
Computing Atmospheric mass density...
Loading historical data...
Loading historical data...
Loading historical data...
Loading historical data...
Loading historical data...
Loading historical data...
Loading historical data...

Documentation

Showing up to 5 results
|